{"data":{"norad_id":48053,"intl_designator":"2021-025M","name":"ONEWEB-0161","alt_names":[],"object_type":"PAYLOAD","status":"ACTIVE","operator":null,"country":"UK","launch_date":"2021-03-25","launch_site_code":"VOSTO","launch_vehicle":null,"mission":null,"orbit_class":"UNKNOWN","rcs_meters":null,"size_class":null,"mass_kg":null,"dimensions":null,"purposes":["comms"],"wikipedia_slug":null,"has_3d_model":false,"image_url":null,"decayed_at":null,"tle_current":{"epoch":"2026-05-25T00:15:46.276128Z","epoch_age_seconds":81049,"freshness":"FRESH","line1":"1 48053U 21025M   26145.01095227  .00000142  00000+0  35305-3 0  9999","line2":"2 48053  87.8943 324.8364 0001767  98.5433 261.5897 13.13469423250465","mean_motion":13.13469423,"eccentricity":0.0001767,"inclination_deg":87.8943,"raan_deg":324.8364,"arg_perigee_deg":98.5433,"mean_anomaly_deg":261.5897,"bstar":0.00035305,"rev_number":25046,"period_min":109.63330967469,"perigee_km":1208.4268393696,"apogee_km":1211.1084048631,"semimajor_km":7587.9046221164,"source":"CELESTRAK","updated_at":"2026-05-25T13:38:22.389714Z"}}}